Location: Hains Lake
(37.8540°N, 99.8578°W)
Time: 21:52:16
(UTC+00:00)

Vanguard 2 Rocket - Pass Details

Date: 21 April 2021
Orbit: 553 x 3326 km, 32.9° (Epoch: 05 May)

Event Time Altitude Azimuth Distance (km) Brightness Sun altitude
Rises 15:26:22 0° 167° (SSE) 5,370 11.2 40.2°
Maximum altitude 15:37:26 10° 124° (SE) 5,389 11.9 42.3°
Drops below altitude 10° 15:37:28 10° 124° (SE) 5,391 11.9 42.3°
Sets 15:51:27 0° 85° (E) 7,171 12.1 44.9°
